Location: Beau Repaire
(50.6144°N, 4.0551°E)
Time: 21:51:54
(UTC+00:00)

Cosmos 1428 Rocket - Pass Details

Date: 15 May 2026
Orbit: 946 x 988 km, 82.9° (Epoch: 10 June)

Event Time Altitude Azimuth Distance (km) Brightness Sun altitude
Rises 21:28:51 0° 349° (N) 3,683 8.9 -14.6°
Reaches altitude 10° 21:31:23 10° 350° (N) 2,726 8.0 -14.8°
Maximum altitude 21:37:38 89° 268° (W) 971 4.5 -15.3°
Enters shadow 21:42:00 21° 173° (S) 2,022 5.6 -15.7°
